FW4468 Weather Reports


time (UTC)temp
C
wind
direction
speed
KPH
gust
KPH
rain 1hr
cm
rain 24hr
cm
rain mn
cm
humidity
%
barometer
mb
20260504001536 26 244 3.2 9.7 0.00 0.00 0.00 22 1009.3
20260504000029 26 257 3.2 11.3 0.00 0.00 0.00 23 1009.5
20260503234534 26 30 1.6 12.9 0.00 0.00 0.00 22 1009.7
20260503233035 26 125 1.6 9.7 0.00 0.00 0.00 25 1009.8
20260503231523 26 333 4.8 9.7 0.00 0.00 0.00 24 1010.1
20260503230022 26 78 1.6 12.9 0.00 0.00 0.00 26 1010.3
20260503224521 27 28 3.2 17.7 0.00 0.00 0.00 23 1010.5
20260503223018 26 84 3.2 14.5 0.00 0.00 0.00 24 1010.7
20260503221526 27 30 4.8 14.5 0.00 0.00 0.00 25 1010.8
20260503220014 27 107 3.2 11.3 0.00 0.00 0.00 27 1011.0
20260503214513 26 246 1.6 16.1 0.00 0.00 0.00 23 1011.0
20260503213009 26 28 3.2 16.1 0.00 0.00 0.00 25 1011.3
20260503211508 26 80 6.4 16.1 0.00 0.00 0.00 24 1011.3
20260503210006 26 84 3.2 16.1 0.00 0.00 0.00 24 1011.4
20260503204504 26 69 3.2 12.9 0.00 0.00 0.00 25 1011.5
20260503203059 25 29 3.2 20.9 0.00 0.00 0.00 27 1011.6
20260503201555 25 84 3.2 16.1 0.00 0.00 0.00 30 1011.9
20260503200056 25 50 3.2 12.9 0.00 0.00 0.00 31 1012.1
20260503194558 25 80 4.8 14.5 0.00 0.00 0.00 32 1012.3
20260503193048 24 229 3.2 12.9 0.00 0.00 0.00 31 1012.5
20260503191547 25 65 4.8 16.1 0.00 0.00 0.00 31 1012.5
20260503190041 24 125 3.2 14.5 0.00 0.00 0.00 36 1012.6
20260503184537 23 103 4.8 14.5 0.00 0.00 0.00 35 1012.7
20260503183035 22 78 4.8 14.5 0.00 0.00 0.00 37 1012.7
20260503181533 22 113 4.8 17.7 0.00 0.00 0.00 36 1012.8
20260503180032 22 65 4.8 12.9 0.00 0.00 0.00 36 1012.8
20260503174528 21 96 4.8 20.9 0.00 0.00 0.00 39 1013.0
20260503173028 21 28 4.8 19.3 0.00 0.00 0.00 41 1013.2
20260503171524 21 123 4.8 17.7 0.00 0.00 0.00 40 1013.3
20260503081520 13 139 0.0 0.0 0.00 0.00 0.00 54 1013.6
20260503071506 15 138 0.0 1.6 0.00 0.00 0.00 47 1013.5
20260503054502 17 138 0.0 3.2 0.00 0.00 0.00 40 1013.4
20260503053002 17 134 0.0 4.8 0.00 0.00 0.00 39 1013.2
20260503051600 18 108 0.0 6.4 0.00 0.00 0.00 36 1013.2
20260503044600 18 148 0.0 4.8 0.00 0.00 0.00 35 1013.1
20260503043104 18 128 0.0 6.4 0.00 0.00 0.00 35 1012.9
20260503041558 18 192 1.6 6.4 0.00 0.00 0.00 36 1012.8
20260503040113 18 121 0.0 4.8 0.00 0.00 0.00 36 1012.6
20260503034558 19 150 1.6 8.0 0.00 0.00 0.00 36 1012.4
20260503033056 19 138 1.6 6.4 0.00 0.00 0.00 35 1012.3
20260503031605 20 127 1.6 6.4 0.00 0.00 0.00 35 1012.2
20260503030054 20 312 1.6 9.7 0.00 0.00 0.00 34 1012.2
20260503024555 20 157 3.2 12.9 0.00 0.00 0.00 34 1012.0
20260503023054 21 132 1.6 4.8 0.00 0.00 0.00 32 1012.0
20260503021553 21 74 3.2 11.3 0.00 0.00 0.00 34 1012.1
20260503020054 21 85 3.2 9.7 0.00 0.00 0.00 33 1012.1
20260503014607 21 234 4.8 16.1 0.00 0.00 0.00 31 1012.2
20260503013050 22 101 3.2 14.5 0.00 0.00 0.00 32 1012.2
20260503011555 22 67 3.2 14.5 0.00 0.00 0.00 31 1012.4
20260503010048 22 90 4.8 19.3 0.00 0.00 0.00 31 1012.3
20260503004548 23 89 6.4 16.1 0.00 0.00 0.00 29 1012.5
20260503003047 23 92 3.2 14.5 0.00 0.00 0.00 31 1012.4